�������l�o���
Date,Time,MP-1(��Sv/h),MP-2(��Sv/h),MP-3(��Sv/h),MP-4(��Sv/h),MP-5(��Sv/h),MP-6(��Sv/h),MP-7(��Sv/h),����,����(m/s),���J
2019/10/28,00:00,0.182,0.161,0.273,0.256,0.259,0.139,0.085,�k�k��,3.9,��
2019/10/28,00:10,0.182,0.161,0.271,0.255,0.259,0.138,0.085,�k�k��,3.5,��
2019/10/28,00:20,0.181,0.161,0.272,0.256,0.261,0.138,0.085,�k��,4.3,��
2019/10/28,00:30,0.183,0.162,0.273,0.254,0.259,0.137,0.085,�k��,4.0,��
2019/10/28,00:40,0.182,0.163,0.270,0.255,0.261,0.139,0.086,�k�k��,3.8,��
2019/10/28,00:50,0.183,0.161,0.271,0.256,0.259,0.138,0.084,�k��,3.6,��
2019/10/28,01:00,0.183,0.162,0.272,0.254,0.261,0.139,0.085,�k��,3.5,��
2019/10/28,01:10,0.182,0.161,0.271,0.256,0.260,0.139,0.086,�k��,4.2,��
2019/10/28,01:20,0.183,0.160,0.273,0.255,0.260,0.137,0.085,�k��,3.7,��
2019/10/28,01:30,0.182,0.162,0.271,0.255,0.262,0.138,0.086,�k��,3.7,��
2019/10/28,01:40,0.182,0.161,0.271,0.255,0.260,0.138,0.085,�k�k��,4.1,��
2019/10/28,01:50,0.183,0.160,0.272,0.256,0.261,0.139,0.084,�k�k��,4.3,��
2019/10/28,02:00,0.182,0.161,0.271,0.255,0.261,0.137,0.085,�k�k��,2.9,��
2019/10/28,02:10,0.183,0.161,0.274,0.257,0.262,0.138,0.086,�k�k��,3.5,��
2019/10/28,02:20,0.182,0.161,0.272,0.254,0.261,0.139,0.084,�k��,2.7,��
2019/10/28,02:30,0.183,0.162,0.272,0.255,0.260,0.138,0.086,�k�k��,3.0,��
2019/10/28,02:40,0.182,0.161,0.272,0.256,0.260,0.139,0.086,�k�k��,2.7,��
2019/10/28,02:50,0.181,0.162,0.271,0.255,0.262,0.138,0.084,�k�k��,2.4,��
2019/10/28,03:00,0.183,0.160,0.273,0.256,0.260,0.138,0.086,�k�k��,4.3,��
2019/10/28,03:10,0.182,0.161,0.271,0.257,0.262,0.138,0.085,�k�k��,4.4,��
2019/10/28,03:20,0.182,0.162,0.272,0.255,0.261,0.139,0.085,�k�k��,5.4,��
2019/10/28,03:30,0.182,0.161,0.273,0.256,0.260,0.139,0.086,�k�k��,5.3,��
2019/10/28,03:40,0.181,0.161,0.272,0.255,0.261,0.139,0.085,�k�k��,6.0,��
2019/10/28,03:50,0.183,0.160,0.272,0.255,0.260,0.139,0.086,�k�k��,6.2,��
2019/10/28,04:00,0.182,0.161,0.272,0.256,0.260,0.139,0.086,�k�k��,6.3,��
2019/10/28,04:10,0.182,0.162,0.272,0.256,0.260,0.138,0.085,�k�k��,6.5,��
2019/10/28,04:20,0.183,0.162,0.273,0.256,0.260,0.139,0.086,�k�k��,5.7,��
2019/10/28,04:30,0.182,0.160,0.273,0.257,0.261,0.139,0.085,�k�k��,5.3,��
2019/10/28,04:40,0.183,0.161,0.270,0.256,0.260,0.138,0.086,�k�k��,5.6,��
2019/10/28,04:50,0.182,0.161,0.273,0.255,0.261,0.138,0.085,�k�k��,4.5,��
2019/10/28,05:00,0.182,0.160,0.272,0.256,0.260,0.138,0.085,�k�k��,3.8,��
2019/10/28,05:10,0.183,0.160,0.272,0.254,0.260,0.138,0.085,�k�k��,3.3,��
2019/10/28,05:20,0.183,0.160,0.273,0.255,0.261,0.139,0.085,�k�k��,3.0,��
2019/10/28,05:30,0.182,0.160,0.272,0.255,0.259,0.139,0.085,�k,2.8,��
2019/10/28,05:40,0.183,0.161,0.272,0.254,0.262,0.139,0.086,�k,2.4,��
2019/10/28,05:50,0.183,0.160,0.273,0.256,0.259,0.140,0.086,�k�k��,3.1,��
2019/10/28,06:00,0.182,0.161,0.270,0.255,0.260,0.139,0.086,�k�k��,2.7,��
2019/10/28,06:10,0.181,0.161,0.273,0.254,0.261,0.137,0.086,�k,2.5,��
2019/10/28,06:20,0.184,0.161,0.272,0.257,0.260,0.137,0.086,�k,3.9,��
2019/10/28,06:30,0.182,0.161,0.272,0.254,0.261,0.138,0.086,�k,4.0,��
2019/10/28,06:40,0.183,0.161,0.273,0.255,0.260,0.138,0.085,�k,3.1,��
2019/10/28,06:50,0.183,0.161,0.271,0.256,0.260,0.138,0.086,�k�k��,2.8,��
2019/10/28,07:00,0.182,0.162,0.271,0.255,0.261,0.138,0.086,�k�k��,1.3,��
2019/10/28,07:10,0.184,0.162,0.271,0.256,0.260,0.139,0.085,�k�k��,4.5,��
2019/10/28,07:20,0.182,0.162,0.271,0.254,0.262,0.138,0.086,�k�k��,4.9,��
2019/10/28,07:30,0.183,0.160,0.273,0.256,0.259,0.138,0.086,�k�k��,5.5,��
2019/10/28,07:40,0.182,0.161,0.271,0.255,0.261,0.138,0.085,�k�k��,4.9,��
2019/10/28,07:50,0.183,0.161,0.272,0.254,0.261,0.139,0.085,�k�k��,4.7,��
2019/10/28,08:00,0.183,0.161,0.273,0.255,0.259,0.138,0.086,�k�k��,4.1,��
2019/10/28,08:10,0.182,0.161,0.271,0.254,0.262,0.138,0.085,�k�k��,3.0,��
2019/10/28,08:20,0.183,0.161,0.274,0.256,0.259,0.138,0.086,�k�k��,2.7,��
2019/10/28,08:30,0.184,0.160,0.270,0.255,0.261,0.137,0.086,�k�k��,2.6,��
2019/10/28,08:40,0.183,0.161,0.272,0.255,0.259,0.139,0.085,�k,2.5,��
2019/10/28,08:50,0.183,0.160,0.271,0.255,0.262,0.138,0.085,�k�k��,1.7,��
2019/10/28,09:00,0.182,0.160,0.271,0.254,0.259,0.138,0.085,�k,1.8,��
2019/10/28,09:10,0.183,0.160,0.274,0.255,0.261,0.139,0.085,-,CALM,��
2019/10/28,09:20,0.181,0.160,0.271,0.254,0.258,0.138,0.084,�k,2.4,��
2019/10/28,09:30,0.182,0.160,0.272,0.253,0.261,0.138,0.085,�k�k��,3.3,��
2019/10/28,09:40,0.180,0.161,0.271,0.255,0.259,0.138,0.086,�k��,3.9,��
2019/10/28,09:50,0.181,0.159,0.271,0.252,0.258,0.137,0.085,�k,4.9,��
2019/10/28,10:00,0.182,0.161,0.272,0.252,0.261,0.138,0.085,�k�k��,3.3,��
2019/10/28,10:10,0.179,0.160,0.270,0.255,0.258,0.138,0.085,�k�k��,3.4,��
2019/10/28,10:20,0.183,0.160,0.272,0.254,0.257,0.137,0.085,�k��,3.7,��
2019/10/28,10:30,0.183,0.160,0.271,0.251,0.261,0.138,0.085,�k��,3.7,��
2019/10/28,10:40,0.180,0.159,0.274,0.254,0.259,0.138,0.085,�k��,3.0,��
2019/10/28,10:50,0.183,0.160,0.270,0.254,0.258,0.138,0.086,�k��,2.7,��
2019/10/28,11:00,0.181,0.160,0.272,0.254,0.260,0.138,0.086,�k��,2.9,��
2019/10/28,11:10,0.181,0.159,0.270,0.251,0.258,0.137,0.084,���k��,3.0,��
2019/10/28,11:20,0.182,0.161,0.271,0.253,0.257,0.138,0.085,�k��,3.1,��
2019/10/28,11:30,0.183,0.159,0.270,0.256,0.260,0.138,0.084,�k��,2.7,��
2019/10/28,11:40,0.180,0.159,0.272,0.254,0.261,0.137,0.085,���k��,2.6,��
2019/10/28,11:50,0.181,0.160,0.271,0.253,0.258,0.138,0.085,�k��,2.0,��
2019/10/28,12:00,0.182,0.159,0.274,0.251,0.255,0.138,0.085,���k��,1.7,��
2019/10/28,12:10,0.182,0.159,0.270,0.252,0.259,0.137,0.085,���k��,2.8,��
2019/10/28,12:20,0.179,0.160,0.273,0.256,0.260,0.138,0.085,���k��,2.4,��
2019/10/28,12:30,0.182,0.160,0.270,0.255,0.258,0.138,0.085,��,2.2,��
2019/10/28,12:40,0.181,0.159,0.272,0.255,0.258,0.139,0.084,��,2.9,��
2019/10/28,12:50,0.181,0.160,0.271,0.252,0.260,0.138,0.085,��,2.3,��
2019/10/28,13:00,0.179,0.159,0.271,0.252,0.260,0.138,0.084,��,1.8,��
2019/10/28,13:10,0.181,0.160,0.273,0.256,0.256,0.137,0.085,��,2.9,��
2019/10/28,13:20,0.182,0.161,0.269,0.256,0.260,0.138,0.085,��,2.5,��
2019/10/28,13:30,0.181,0.160,0.269,0.254,0.260,0.138,0.084,���k��,2.3,��
2019/10/28,13:40,0.180,0.159,0.272,0.252,0.259,0.139,0.085,��,2.4,��
2019/10/28,13:50,0.179,0.160,0.268,0.255,0.257,0.138,0.085,��,3.1,��
2019/10/28,14:00,0.182,0.160,0.271,0.256,0.261,0.138,0.085,��,2.1,��
2019/10/28,14:10,0.182,0.160,0.272,0.255,0.259,0.139,0.085,��,1.5,��
2019/10/28,14:20,0.181,0.161,0.272,0.257,0.259,0.137,0.085,���쓌,2.5,��
2019/10/28,14:30,0.184,0.159,0.273,0.254,0.261,0.137,0.085,��,2.0,��
2019/10/28,14:40,0.181,0.161,0.273,0.258,0.258,0.138,0.085,��,1.0,��
2019/10/28,14:50,0.181,0.160,0.273,0.255,0.260,0.139,0.085,��,1.8,��
2019/10/28,15:00,0.182,0.161,0.272,0.257,0.261,0.138,0.085,���쓌,1.7,��
2019/10/28,15:10,0.181,0.160,0.272,0.256,0.262,0.139,0.085,���쓌,0.8,��
2019/10/28,15:20,0.183,0.160,0.272,0.257,0.259,0.138,0.085,���쓌,1.6,��
2019/10/28,15:30,0.182,0.160,0.272,0.255,0.261,0.138,0.085,�쓌,2.0,��
2019/10/28,15:40,0.182,0.162,0.272,0.256,0.260,0.139,0.085,�쓌,1.7,��
2019/10/28,15:50,0.181,0.161,0.272,0.255,0.261,0.138,0.085,���쓌,1.7,��
2019/10/28,16:00,0.182,0.161,0.272,0.257,0.258,0.139,0.084,-,CALM,��
2019/10/28,16:10,0.182,0.161,0.271,0.256,0.260,0.138,0.086,���쓌,1.1,��
2019/10/28,16:20,0.182,0.160,0.274,0.255,0.258,0.138,0.084,�쓌,0.8,��
2019/10/28,16:30,0.182,0.161,0.272,0.255,0.263,0.138,0.085,�쓌,0.8,��
2019/10/28,16:40,0.183,0.161,0.274,0.255,0.259,0.138,0.085,��쓌,1.4,��
2019/10/28,16:50,0.181,0.161,0.271,0.257,0.260,0.137,0.084,�쓌,1.5,��
2019/10/28,17:00,0.182,0.161,0.273,0.255,0.260,0.139,0.084,��쓌,1.6,��
2019/10/28,17:10,0.183,0.161,0.274,0.255,0.260,0.138,0.085,��쓌,1.8,��
2019/10/28,17:20,0.182,0.161,0.272,0.255,0.261,0.138,0.084,��쓌,1.5,��
2019/10/28,17:30,0.182,0.161,0.273,0.255,0.260,0.138,0.085,��쓌,2.2,��
2019/10/28,17:40,0.182,0.160,0.274,0.257,0.262,0.138,0.085,��쓌,1.6,��
2019/10/28,17:50,0.183,0.162,0.274,0.255,0.260,0.138,0.084,��쓌,2.1,��
2019/10/28,18:00,0.183,0.161,0.274,0.257,0.261,0.138,0.086,��쓌,2.3,��
2019/10/28,18:10,0.182,0.160,0.272,0.257,0.260,0.138,0.086,��,2.4,��
2019/10/28,18:20,0.182,0.162,0.273,0.255,0.260,0.140,0.085,��,3.1,��
2019/10/28,18:30,0.183,0.160,0.272,0.257,0.261,0.138,0.086,��쓌,2.9,��
2019/10/28,18:40,0.182,0.162,0.272,0.255,0.259,0.138,0.085,��,3.2,��
2019/10/28,18:50,0.183,0.162,0.274,0.256,0.261,0.139,0.086,��,3.5,��
2019/10/28,19:00,0.183,0.161,0.273,0.257,0.261,0.140,0.085,��,3.5,��
2019/10/28,19:10,0.182,0.162,0.273,0.255,0.259,0.139,0.085,��,3.7,��
2019/10/28,19:20,0.184,0.161,0.273,0.256,0.260,0.139,0.085,��,4.0,��
2019/10/28,19:30,0.182,0.161,0.272,0.257,0.260,0.138,0.086,��,3.5,��
2019/10/28,19:40,0.183,0.161,0.272,0.255,0.260,0.139,0.085,��,3.6,��
2019/10/28,19:50,0.184,0.161,0.273,0.257,0.262,0.139,0.085,��,3.4,��
2019/10/28,20:00,0.183,0.160,0.273,0.256,0.260,0.139,0.085,��,3.1,��
2019/10/28,20:10,0.183,0.161,0.273,0.256,0.260,0.140,0.085,��,3.7,��
2019/10/28,20:20,0.182,0.161,0.273,0.257,0.260,0.138,0.085,��,3.8,��
2019/10/28,20:30,0.183,0.161,0.272,0.255,0.259,0.138,0.085,��,4.1,��
2019/10/28,20:40,0.183,0.161,0.273,0.256,0.262,0.139,0.086,��,3.9,��
2019/10/28,20:50,0.182,0.161,0.273,0.258,0.259,0.140,0.085,��,4.7,��
2019/10/28,21:00,0.183,0.160,0.272,0.256,0.261,0.138,0.085,��,4.9,��
2019/10/28,21:10,0.181,0.162,0.273,0.257,0.259,0.138,0.085,��,5.1,��
2019/10/28,21:20,0.183,0.161,0.272,0.257,0.260,0.138,0.085,��쐼,5.0,��
2019/10/28,21:30,0.183,0.161,0.272,0.256,0.262,0.137,0.086,��쐼,4.9,��
2019/10/28,21:40,0.181,0.162,0.274,0.257,0.261,0.138,0.086,��쐼,5.2,��
2019/10/28,21:50,0.184,0.161,0.272,0.257,0.260,0.140,0.085,��쐼,4.8,��
2019/10/28,22:00,0.182,0.161,0.273,0.256,0.260,0.138,0.085,��,5.0,��
2019/10/28,22:10,0.183,0.161,0.273,0.256,0.260,0.139,0.085,��,5.2,��
2019/10/28,22:20,0.183,0.161,0.272,0.255,0.261,0.139,0.086,��,5.5,��
2019/10/28,22:30,0.181,0.161,0.273,0.256,0.260,0.139,0.086,��,4.5,��
2019/10/28,22:40,0.182,0.161,0.272,0.256,0.261,0.139,0.085,��,4.6,��
2019/10/28,22:50,0.183,0.160,0.271,0.256,0.261,0.139,0.085,��쐼,4.2,��
2019/10/28,23:00,0.182,0.161,0.274,0.256,0.259,0.138,0.085,��쐼,4.1,��
2019/10/28,23:10,0.183,0.161,0.273,0.255,0.261,0.138,0.085,��쐼,4.3,��
2019/10/28,23:20,0.182,0.161,0.273,0.255,0.260,0.138,0.086,��,4.2,��
2019/10/28,23:30,0.183,0.161,0.274,0.256,0.260,0.139,0.086,��쐼,4.4,��
2019/10/28,23:40,0.183,0.161,0.273,0.258,0.261,0.138,0.086,��쐼,4.8,��
2019/10/28,23:50,0.182,0.161,0.273,0.257,0.260,0.139,0.085,��쐼,5.8,��
